{"data":{"norad_id":57468,"epoch":"2026-09-20T14:25:58.175328Z","epoch_age_seconds":118895,"freshness":"FRESH","line1":"1 57468U 23107M   26263.60136777 -.00000032  00000+0  83857-5 0  9990","line2":"2 57468  43.0057 315.5722 0001742 259.9252 100.1404 15.27579488174956","mean_motion":15.27579488,"eccentricity":0.0001742,"inclination_deg":43.0057,"raan_deg":315.5722,"arg_perigee_deg":259.9252,"mean_anomaly_deg":100.1404,"bstar":8.3857e-6,"rev_number":17495,"period_min":94.266780309111,"perigee_km":481.85541026727,"apogee_km":484.24584803727,"semimajor_km":6861.1876291523,"source":"CELESTRAK","updated_at":"2026-09-21T09:00:33.630266Z"}}